GALAXY 19 (G-19)

Last updated on Thu Apr 09 2026 00:02:48 GMT+0000 (Coordinated Universal Time)

1 33376U 08045A 26098.57789980 -.00000137 00000+0 00000+0 0 9997 2 33376 0.0235 250.9896 0002991 137.5080 279.3751 1.00272525 64208
UTC large
Height (km)
Speed (km/s)
/
Latitude / Longitude
Inclination (degrees)
Orbital Period (minutes)
Azimuth
Elevation
Range (km)
Doppler Factor

Next 0 passes for location: London (51.5072 / 0.1276)

Sorry there are no passes over London.